Location: Rounton
(54.4000°N, 1.3500°W)
Time: 20:56:10
(UTC+00:00)

A-11 Canister half - Pass Details

Date: 05 December 2021
Orbit: 1516 x 1684 km, 47.2° (Epoch: 19 January)

Event Time Altitude Azimuth Distance (km) Brightness Sun altitude
Rises 13:02:09 0° 284° (WNW) 4,888 11.7 11.9°
Reaches altitude 10° 13:05:47 10° 274° (W) 3,917 11.3 11.7°
Maximum altitude 13:13:57 29° 219° (SW) 2,705 11.7 11.4°
Drops below altitude 10° 13:22:10 10° 165° (SSE) 3,940 12.2 11.0°
Sets 13:25:51 0° 155° (SSE) 4,921 12.4 10.8°
